AZA576 LIRF-LSGG

Flight info

Callsign AZA576
Flight time 1h 10m
Altitude 34000
Route NEMBO DCT GOVGO DCT SPEZI DCT IDONA DCT TONDA DCT AOSTA/N0423F300 L615 BANKO
Aircraft MD82/M-SDFGIRWY/S

Departure

Time 2026-05-07 06:20
Airport Rome–Fiumicino Leonardo da Vinci International Airport (LIRF)

Arrival

Time 2026-05-07 07:30
Airport Geneva International Airport (LSGG)
Time Latitude Longitude Altitude Speed Heading
2026-05-07 05:38 41.79797 12.25697 16 ft 0 kts 295°
2026-05-07 05:59 41.79796 12.25700 15 ft 3 kts 295°
2026-05-07 05:59 41.79787 12.25726 15 ft 4 kts 304°
2026-05-07 05:59 41.79771 12.25742 15 ft 4 kts 356°
2026-05-07 06:00 41.79752 12.25737 15 ft 2 kts 25°
2026-05-07 06:00 41.79773 12.25750 16 ft 4 kts 25°
2026-05-07 06:00 41.79787 12.25759 15 ft 0 kts 25°
2026-05-07 06:12 41.79790 12.25761 15 ft 1 kts 25°
2026-05-07 06:12 41.79801 12.25768 15 ft 2 kts 25°
2026-05-07 06:13 41.79819 12.25779 16 ft 4 kts 25°
2026-05-07 06:13 41.79844 12.25799 15 ft 5 kts 33°
2026-05-07 06:13 41.79876 12.25824 16 ft 6 kts 27°
2026-05-07 06:13 41.79916 12.25850 15 ft 7 kts 25°
2026-05-07 06:14 41.79964 12.25880 16 ft 8 kts 25°
2026-05-07 06:14 41.80019 12.25913 15 ft 9 kts 25°
2026-05-07 06:14 41.80079 12.25950 16 ft 10 kts 25°
2026-05-07 06:14 41.80145 12.25991 15 ft 11 kts 25°
2026-05-07 06:15 41.80217 12.26035 15 ft 12 kts 25°
2026-05-07 06:15 41.80292 12.26082 15 ft 11 kts 25°
2026-05-07 06:15 41.80351 12.26138 15 ft 10 kts 52°
2026-05-07 06:15 41.80381 12.26227 17 ft 11 kts 70°
2026-05-07 06:16 41.80408 12.26326 15 ft 12 kts 70°
2026-05-07 06:16 41.80436 12.26429 17 ft 12 kts 70°
2026-05-07 06:16 41.80456 12.26499 16 ft 12 kts 70°
2026-05-07 06:16 41.80497 12.26650 16 ft 14 kts 70°
2026-05-07 06:17 41.80520 12.26731 17 ft 15 kts 70°
2026-05-07 06:17 41.80569 12.26909 14 ft 16 kts 70°
2026-05-07 06:17 41.80614 12.27034 15 ft 12 kts 31°
2026-05-07 06:17 41.80663 12.27047 14 ft 11 kts
2026-05-07 06:18 41.80740 12.27056 14 ft 11 kts
2026-05-07 06:18 41.80814 12.27037 14 ft 11 kts 342°
2026-05-07 06:18 41.80888 12.27002 14 ft 11 kts 340°
2026-05-07 06:18 41.80951 12.26971 15 ft 4 kts 340°
2026-05-07 06:19 41.80961 12.26960 14 ft 3 kts 304°
2026-05-07 06:19 41.80958 12.26926 13 ft 4 kts 249°
2026-05-07 06:19 41.80945 12.26880 15 ft 14 kts 249°
2026-05-07 06:19 41.80842 12.26506 19 ft 72 kts 250°
2026-05-07 06:20 41.80589 12.25589 16 ft 136 kts 250°
2026-05-07 06:20 41.80193 12.24174 118 ft 181 kts 249°
2026-05-07 06:20 41.79736 12.22680 759 ft 186 kts 245°
2026-05-07 06:20 41.79250 12.21126 1617 ft 183 kts 255°
2026-05-07 06:21 41.79100 12.19369 2061 ft 194 kts 270°
2026-05-07 06:21 41.79096 12.17512 2559 ft 206 kts 270°
2026-05-07 06:21 41.79089 12.15480 2824 ft 231 kts 269°
2026-05-07 06:21 41.79086 12.13230 3137 ft 251 kts 267°
2026-05-07 06:22 41.79076 12.10816 3568 ft 265 kts 266°
2026-05-07 06:22 41.79062 12.05808 4956 ft 270 kts 268°
2026-05-07 06:22 41.79070 12.03293 5748 ft 270 kts 268°
2026-05-07 06:23 41.79072 12.00783 6549 ft 269 kts 268°
2026-05-07 06:23 41.79072 11.98261 7261 ft 272 kts 268°
2026-05-07 06:23 41.79068 11.95710 7946 ft 275 kts 267°
2026-05-07 06:23 41.79060 11.93135 8618 ft 277 kts 267°
2026-05-07 06:24 41.79049 11.90542 9258 ft 280 kts 267°
2026-05-07 06:24 41.79035 11.87921 9881 ft 283 kts 267°
2026-05-07 06:24 41.79021 11.85250 10292 ft 294 kts 268°
2026-05-07 06:24 41.79006 11.82419 10478 ft 314 kts 268°
2026-05-07 06:25 41.78989 11.79413 10685 ft 331 kts 268°
2026-05-07 06:25 41.78965 11.76277 11085 ft 340 kts 268°
2026-05-07 06:25 41.78944 11.73110 11776 ft 340 kts 268°
2026-05-07 06:25 41.78927 11.69950 12494 ft 339 kts 268°
2026-05-07 06:26 41.78909 11.66785 13083 ft 341 kts 268°
2026-05-07 06:26 41.78891 11.63592 13621 ft 345 kts 268°
2026-05-07 06:26 41.78874 11.60361 14190 ft 348 kts 268°
2026-05-07 06:26 41.78907 11.57113 14741 ft 351 kts 275°
2026-05-07 06:27 41.79635 11.53973 15233 ft 361 kts 297°
2026-05-07 06:27 41.81124 11.51288 15793 ft 366 kts 308°
2026-05-07 06:27 41.82855 11.48687 16288 ft 371 kts 309°
2026-05-07 06:27 41.84608 11.46124 16766 ft 375 kts 309°
2026-05-07 06:28 41.86385 11.43550 17274 ft 378 kts 309°
2026-05-07 06:28 41.88149 11.40987 17782 ft 380 kts 309°
2026-05-07 06:28 41.89934 11.38358 18275 ft 382 kts 308°
2026-05-07 06:28 41.91711 11.35687 18765 ft 385 kts 307°
2026-05-07 06:29 41.93484 11.32980 19245 ft 387 kts 307°
2026-05-07 06:29 41.95262 11.30243 19726 ft 390 kts 307°
2026-05-07 06:29 41.97047 11.27486 20227 ft 392 kts 307°
2026-05-07 06:29 41.98839 11.24713 20725 ft 394 kts 306°
2026-05-07 06:30 42.00640 11.21922 21149 ft 397 kts 306°
2026-05-07 06:30 42.02459 11.19111 21568 ft 400 kts 306°
2026-05-07 06:30 42.04293 11.16282 22023 ft 402 kts 306°
2026-05-07 06:30 42.06134 11.13442 22457 ft 404 kts 306°
2026-05-07 06:31 42.07983 11.10577 22852 ft 407 kts 305°
2026-05-07 06:31 42.09832 11.07687 23270 ft 408 kts 305°
2026-05-07 06:31 42.11688 11.04778 23701 ft 410 kts 305°
2026-05-07 06:31 42.13555 11.01861 24098 ft 413 kts 305°
2026-05-07 06:32 42.15440 10.98925 24456 ft 415 kts 305°
2026-05-07 06:32 42.17340 10.95973 24786 ft 419 kts 305°
2026-05-07 06:32 42.19254 10.93002 25179 ft 420 kts 305°
2026-05-07 06:32 42.21174 10.90025 25570 ft 421 kts 305°
2026-05-07 06:33 42.23101 10.87037 25896 ft 424 kts 305°
2026-05-07 06:33 42.25045 10.84024 26261 ft 426 kts 305°
2026-05-07 06:33 42.26988 10.81008 26647 ft 427 kts 304°
2026-05-07 06:33 42.29099 10.78137 26942 ft 439 kts 317°
2026-05-07 06:34 42.31810 10.76082 27201 ft 455 kts 331°
2026-05-07 06:34 42.34788 10.74567 27540 ft 459 kts 335°
2026-05-07 06:34 42.37822 10.73170 27802 ft 463 kts 335°
2026-05-07 06:34 42.40882 10.71781 28088 ft 465 kts 335°
2026-05-07 06:35 42.43944 10.70377 28376 ft 466 kts 334°
2026-05-07 06:35 42.47011 10.68929 28664 ft 467 kts 334°
2026-05-07 06:35 42.50066 10.67445 29022 ft 466 kts 333°
2026-05-07 06:35 42.53100 10.65939 29418 ft 464 kts 333°
2026-05-07 06:36 42.56129 10.64423 29735 ft 464 kts 333°
2026-05-07 06:36 42.59159 10.62896 29871 ft 464 kts 333°
2026-05-07 06:36 42.65205 10.59862 29977 ft 462 kts 333°
2026-05-07 06:37 42.71237 10.56843 30002 ft 461 kts 333°
2026-05-07 06:37 42.77246 10.53819 29999 ft 460 kts 333°
2026-05-07 06:38 42.83259 10.50800 30003 ft 461 kts 333°
2026-05-07 06:38 42.89296 10.47766 30001 ft 463 kts 333°
2026-05-07 06:39 42.95312 10.44741 30006 ft 464 kts 333°
2026-05-07 06:39 43.01401 10.41674 30017 ft 463 kts 332°
2026-05-07 06:40 43.07423 10.38635 30018 ft 461 kts 332°
2026-05-07 06:40 43.13448 10.35590 30005 ft 462 kts 332°
2026-05-07 06:41 43.19128 10.31811 30026 ft 444 kts 313°
2026-05-07 06:41 43.23701 10.26247 30007 ft 439 kts 309°
2026-05-07 06:42 43.28196 10.20515 30196 ft 443 kts 309°
2026-05-07 06:42 43.30462 10.17670 30600 ft 440 kts 309°
2026-05-07 06:42 43.32696 10.14907 31071 ft 437 kts 310°
2026-05-07 06:43 43.34897 10.12216 31446 ft 434 kts 310°
2026-05-07 06:43 43.37153 10.09468 31752 ft 434 kts 310°
2026-05-07 06:43 43.39414 10.06710 31892 ft 436 kts 310°
2026-05-07 06:43 43.41687 10.03934 31958 ft 437 kts 310°
2026-05-07 06:44 43.46253 9.98347 32004 ft 435 kts 310°
2026-05-07 06:44 43.50707 9.92875 32014 ft 429 kts 309°
2026-05-07 06:45 43.55132 9.87366 32018 ft 430 kts 309°
2026-05-07 06:45 43.59586 9.81824 32012 ft 432 kts 309°
2026-05-07 06:46 43.64066 9.76273 32009 ft 433 kts 309°
2026-05-07 06:46 43.68547 9.70732 32008 ft 432 kts 309°
2026-05-07 06:47 43.73009 9.65201 32015 ft 430 kts 309°
2026-05-07 06:47 43.77483 9.59684 32016 ft 435 kts 314°
2026-05-07 06:48 43.82718 9.55198 32017 ft 447 kts 322°
2026-05-07 06:48 43.88205 9.51087 32010 ft 449 kts 323°
2026-05-07 06:49 43.93676 9.46920 32008 ft 448 kts 322°
2026-05-07 06:49 43.99060 9.42643 32007 ft 442 kts 318°
2026-05-07 06:50 44.03954 9.37635 32001 ft 436 kts 313°
2026-05-07 06:50 44.08735 9.32406 31999 ft 438 kts 314°
2026-05-07 06:51 44.13585 9.27225 31989 ft 440 kts 314°
2026-05-07 06:51 44.18479 9.22098 31982 ft 440 kts 314°
2026-05-07 06:52 44.23361 9.16998 31978 ft 438 kts 314°
2026-05-07 06:52 44.28228 9.11882 31973 ft 438 kts 314°
2026-05-07 06:53 44.33091 9.06747 31973 ft 439 kts 314°
2026-05-07 06:53 44.37959 9.01567 31971 ft 440 kts 314°
2026-05-07 06:54 44.42839 8.96381 31973 ft 440 kts 315°
2026-05-07 06:54 44.47669 8.91254 31972 ft 437 kts 314°
2026-05-07 06:55 44.52511 8.86083 31972 ft 438 kts 314°
2026-05-07 06:55 44.57365 8.80907 31975 ft 439 kts 315°
2026-05-07 06:56 44.62227 8.75714 31966 ft 439 kts 315°
2026-05-07 06:56 44.67076 8.70532 31972 ft 437 kts 314°
2026-05-07 06:57 44.71896 8.65326 31970 ft 437 kts 314°
2026-05-07 06:57 44.76732 8.60093 31973 ft 440 kts 315°
2026-05-07 06:58 44.81592 8.54845 31970 ft 441 kts 315°
2026-05-07 06:58 44.86456 8.49595 31971 ft 440 kts 315°
2026-05-07 06:59 44.91307 8.44353 31971 ft 438 kts 315°
2026-05-07 06:59 44.96067 8.39189 31977 ft 439 kts 315°
2026-05-07 07:00 45.00907 8.33927 31979 ft 440 kts 315°
2026-05-07 07:00 45.05759 8.28652 31979 ft 441 kts 315°
2026-05-07 07:01 45.10620 8.23352 31978 ft 441 kts 314°
2026-05-07 07:01 45.15216 8.17712 31983 ft 435 kts 310°
2026-05-07 07:02 45.19643 8.11887 31983 ft 434 kts 310°
2026-05-07 07:02 45.24116 8.06100 31981 ft 436 kts 311°
2026-05-07 07:03 45.28644 8.00346 31991 ft 437 kts 311°
2026-05-07 07:03 45.32414 7.95555 31998 ft 437 kts 312°
2026-05-07 07:04 45.36938 7.89804 31998 ft 435 kts 312°
2026-05-07 07:04 45.41449 7.84051 31998 ft 436 kts 312°
2026-05-07 07:05 45.45950 7.78263 31998 ft 437 kts 312°
2026-05-07 07:05 45.50455 7.72437 31996 ft 438 kts 312°
2026-05-07 07:06 45.54969 7.66610 32008 ft 438 kts 312°
2026-05-07 07:06 45.59491 7.60770 32000 ft 439 kts 312°
2026-05-07 07:07 45.64016 7.54920 32014 ft 438 kts 312°
2026-05-07 07:07 45.68520 7.49075 32015 ft 438 kts 313°
2026-05-07 07:08 45.73019 7.43230 32014 ft 436 kts 312°
2026-05-07 07:08 45.77496 7.37369 32020 ft 434 kts 308°
2026-05-07 07:09 45.79226 7.33919 32029 ft 422 kts 290°
2026-05-07 07:09 45.80094 7.29966 32025 ft 414 kts 276°
2026-05-07 07:09 45.80829 7.21860 32015 ft 412 kts 272°
2026-05-07 07:10 45.81369 7.13713 32017 ft 409 kts 272°
2026-05-07 07:10 45.82143 7.05608 32031 ft 417 kts 285°
2026-05-07 07:11 45.83428 7.01830 31737 ft 431 kts 298°
2026-05-07 07:11 45.85136 6.98243 31129 ft 436 kts 302°
2026-05-07 07:11 45.86911 6.94731 30420 ft 432 kts 302°
2026-05-07 07:11 45.88670 6.91255 29672 ft 428 kts 302°
2026-05-07 07:12 45.90399 6.87796 28904 ft 426 kts 302°
2026-05-07 07:12 45.92102 6.84334 28096 ft 424 kts 302°
2026-05-07 07:12 45.93777 6.80863 27303 ft 421 kts 302°
2026-05-07 07:12 45.95426 6.77399 26560 ft 418 kts 302°
2026-05-07 07:13 45.97046 6.73954 25829 ft 414 kts 302°
2026-05-07 07:13 45.98628 6.70520 25146 ft 410 kts 301°
2026-05-07 07:13 46.00184 6.67111 24482 ft 405 kts 301°
2026-05-07 07:13 46.01718 6.63748 23860 ft 400 kts 302°
2026-05-07 07:14 46.03234 6.60423 23234 ft 395 kts 303°
2026-05-07 07:14 46.04744 6.57149 22628 ft 390 kts 303°
2026-05-07 07:14 46.06248 6.53927 22022 ft 386 kts 303°
2026-05-07 07:14 46.07752 6.50745 21408 ft 381 kts 303°
2026-05-07 07:15 46.09239 6.47613 20783 ft 377 kts 303°
2026-05-07 07:15 46.10717 6.44501 20185 ft 374 kts 303°
2026-05-07 07:15 46.12173 6.41433 19571 ft 370 kts 303°
2026-05-07 07:15 46.13617 6.38385 18968 ft 366 kts 303°
2026-05-07 07:16 46.15041 6.35374 18499 ft 358 kts 303°
2026-05-07 07:16 46.16427 6.32473 18215 ft 346 kts 306°
2026-05-07 07:16 46.18173 6.30142 17786 ft 343 kts 329°
2026-05-07 07:16 46.20396 6.29037 17462 ft 337 kts 353°
2026-05-07 07:17 46.22674 6.29303 17250 ft 328 kts 15°
2026-05-07 07:17 46.24732 6.30784 16351 ft 340 kts 37°
2026-05-07 07:17 46.26421 6.33333 14732 ft 368 kts 52°
2026-05-07 07:17 46.28016 6.36419 13071 ft 395 kts 52°
2026-05-07 07:18 46.29739 6.39605 11555 ft 405 kts 50°
2026-05-07 07:18 46.31562 6.42651 10400 ft 393 kts 47°
2026-05-07 07:18 46.33342 6.45476 10017 ft 363 kts 46°
2026-05-07 07:18 46.34982 6.47997 10012 ft 326 kts 46°
2026-05-07 07:19 46.36473 6.50252 10017 ft 294 kts 46°
2026-05-07 07:19 46.37817 6.52304 10019 ft 269 kts 46°
2026-05-07 07:19 46.39099 6.54271 10018 ft 271 kts 46°
2026-05-07 07:19 46.40398 6.56270 9859 ft 272 kts 46°
2026-05-07 07:20 46.41698 6.58270 9742 ft 272 kts 46°
2026-05-07 07:20 46.42993 6.60265 9606 ft 272 kts 46°
2026-05-07 07:20 46.44279 6.62244 9482 ft 269 kts 46°
2026-05-07 07:20 46.45582 6.64231 9330 ft 273 kts 42°
2026-05-07 07:21 46.47172 6.65645 9220 ft 267 kts 14°
2026-05-07 07:21 46.48989 6.66028 9145 ft 263 kts 356°
2026-05-07 07:21 46.50784 6.65623 9073 ft 260 kts 339°
2026-05-07 07:21 46.52402 6.64504 9003 ft 257 kts 322°
2026-05-07 07:22 46.53715 6.62763 8927 ft 255 kts 305°
2026-05-07 07:22 46.54584 6.60595 8857 ft 251 kts 288°
2026-05-07 07:22 46.54958 6.58110 8784 ft 249 kts 270°
2026-05-07 07:22 46.54772 6.55634 8707 ft 247 kts 252°
2026-05-07 07:23 46.54015 6.53456 8636 ft 246 kts 229°
2026-05-07 07:23 46.52772 6.51760 8551 ft 246 kts 219°
2026-05-07 07:23 46.51432 6.50224 8485 ft 245 kts 218°
2026-05-07 07:23 46.50091 6.48681 8384 ft 246 kts 219°
2026-05-07 07:24 46.48752 6.47120 8221 ft 248 kts 220°
2026-05-07 07:24 46.47453 6.45459 7923 ft 248 kts 221°
2026-05-07 07:24 46.46169 6.43804 7614 ft 246 kts 222°
2026-05-07 07:24 46.44934 6.42122 7309 ft 241 kts 224°
2026-05-07 07:25 46.42574 6.38673 6712 ft 239 kts 226°
2026-05-07 07:25 46.41420 6.36948 6412 ft 237 kts 226°
2026-05-07 07:25 46.40272 6.35228 6107 ft 238 kts 226°
2026-05-07 07:26 46.39122 6.33506 5811 ft 237 kts 226°
2026-05-07 07:26 46.37988 6.31821 5530 ft 229 kts 225°
2026-05-07 07:26 46.36890 6.30190 5224 ft 224 kts 225°
2026-05-07 07:26 46.35809 6.28590 4920 ft 221 kts 225°
2026-05-07 07:27 46.34737 6.27005 4624 ft 217 kts 225°
2026-05-07 07:27 46.33718 6.25498 4312 ft 202 kts 225°
2026-05-07 07:27 46.32762 6.24084 4017 ft 191 kts 225°
2026-05-07 07:27 46.31868 6.22764 3731 ft 175 kts 225°
2026-05-07 07:28 46.31058 6.21568 3432 ft 159 kts 225°
2026-05-07 07:28 46.30311 6.20467 3115 ft 149 kts 225°
2026-05-07 07:28 46.29598 6.19417 2790 ft 145 kts 225°
2026-05-07 07:28 46.28904 6.18396 2489 ft 140 kts 225°
2026-05-07 07:29 46.28239 6.17411 2272 ft 135 kts 225°
2026-05-07 07:29 46.27575 6.16442 2084 ft 136 kts 225°
2026-05-07 07:29 46.26912 6.15465 1936 ft 136 kts 226°
2026-05-07 07:29 46.26247 6.14487 1785 ft 138 kts 225°
2026-05-07 07:30 46.25575 6.13494 1589 ft 137 kts 225°
2026-05-07 07:30 46.24906 6.12509 1395 ft 136 kts 225°
2026-05-07 07:30 46.24286 6.11600 1374 ft 105 kts 225°
2026-05-07 07:30 46.23942 6.11093 1378 ft 49 kts 225°
2026-05-07 07:31 46.23772 6.10854 1379 ft 24 kts 218°
2026-05-07 07:31 46.23625 6.10742 1380 ft 24 kts 199°
2026-05-07 07:31 46.23515 6.10696 1388 ft 9 kts 195°
2026-05-07 07:31 46.23462 6.10674 1391 ft 7 kts 196°
2026-05-07 07:32 46.23420 6.10652 1395 ft 6 kts 205°
2026-05-07 07:32 46.23368 6.10595 1400 ft 13 kts 222°
2026-05-07 07:32 46.23292 6.10485 1399 ft 18 kts 225°
2026-05-07 07:32 46.23205 6.10356 1402 ft 16 kts 225°
2026-05-07 07:33 46.23129 6.10238 1397 ft 13 kts 230°
2026-05-07 07:33 46.23079 6.10165 1395 ft 8 kts 210°
2026-05-07 07:33 46.23031 6.10194 1402 ft 9 kts 136°
2026-05-07 07:33 46.23009 6.10256 1393 ft 6 kts 83°
2026-05-07 07:34 46.23009 6.10312 1401 ft 4 kts 90°
2026-05-07 07:34 46.23009 6.10329 1393 ft 0 kts 90°